Year,Month,Day,Hour,Minute,Value (Times are PST for temperature in C)
2021,04,17,00,00,10.00
2021,04,17,00,01,10.00
2021,04,17,00,02,9.90
2021,04,17,00,03,9.90
2021,04,17,00,04,9.90
2021,04,17,00,05,9.90
2021,04,17,00,06,9.90
2021,04,17,00,07,9.90
2021,04,17,00,08,9.90
2021,04,17,00,09,9.90
2021,04,17,00,10,9.80
2021,04,17,00,11,9.80
2021,04,17,00,12,9.80
2021,04,17,00,13,9.80
2021,04,17,00,14,9.80
2021,04,17,00,15,9.80
2021,04,17,00,16,9.80
2021,04,17,00,17,9.80
2021,04,17,00,18,9.70
2021,04,17,00,19,9.70
2021,04,17,00,20,9.70
2021,04,17,00,21,9.70
2021,04,17,00,22,9.70
2021,04,17,00,23,9.70
2021,04,17,00,24,9.60
2021,04,17,00,25,9.60
2021,04,17,00,26,9.60
2021,04,17,00,27,9.60
2021,04,17,00,28,9.60
2021,04,17,00,29,9.60
2021,04,17,00,30,9.60
2021,04,17,00,31,9.60
2021,04,17,00,32,9.60
2021,04,17,00,33,9.50
2021,04,17,00,34,9.50
2021,04,17,00,35,9.50
2021,04,17,00,36,9.50
2021,04,17,00,37,9.40
2021,04,17,00,38,9.40
2021,04,17,00,39,9.40
2021,04,17,00,40,9.40
2021,04,17,00,41,9.40
2021,04,17,00,42,9.40
2021,04,17,00,43,9.40
2021,04,17,00,44,9.40
2021,04,17,00,45,9.40
2021,04,17,00,46,9.40
2021,04,17,00,47,9.40
2021,04,17,00,48,9.40
2021,04,17,00,49,9.40
2021,04,17,00,50,9.40
2021,04,17,00,51,9.40
2021,04,17,00,52,9.40
2021,04,17,00,53,9.40
2021,04,17,00,54,9.40
2021,04,17,00,55,9.30
2021,04,17,00,56,9.30
2021,04,17,00,57,9.30
2021,04,17,00,58,9.30
2021,04,17,00,59,9.30
2021,04,17,01,00,9.30
2021,04,17,01,01,9.30
2021,04,17,01,02,9.30
2021,04,17,01,03,9.20
2021,04,17,01,04,9.20
2021,04,17,01,05,9.20
2021,04,17,01,06,9.20
2021,04,17,01,07,9.20
2021,04,17,01,08,9.20
2021,04,17,01,09,9.20
2021,04,17,01,10,9.20
2021,04,17,01,11,9.10
2021,04,17,01,12,9.10
2021,04,17,01,13,9.10
2021,04,17,01,14,9.10
2021,04,17,01,15,9.10
2021,04,17,01,16,9.10
2021,04,17,01,17,9.10
2021,04,17,01,18,9.10
2021,04,17,01,19,9.10
2021,04,17,01,20,9.00
2021,04,17,01,21,9.00
2021,04,17,01,22,9.00
2021,04,17,01,23,9.00
2021,04,17,01,24,9.00
2021,04,17,01,25,9.00
2021,04,17,01,26,8.90
2021,04,17,01,27,8.90
2021,04,17,01,28,8.90
2021,04,17,01,29,8.90
2021,04,17,01,30,8.90
2021,04,17,01,31,8.90
2021,04,17,01,32,8.80
2021,04,17,01,33,8.80
2021,04,17,01,34,8.80
2021,04,17,01,35,8.80
2021,04,17,01,36,8.80
2021,04,17,01,37,8.80
2021,04,17,01,38,8.80
2021,04,17,01,39,8.80
2021,04,17,01,40,8.80
2021,04,17,01,41,8.80
2021,04,17,01,42,8.80
2021,04,17,01,43,8.80
2021,04,17,01,44,8.80
2021,04,17,01,45,8.80
2021,04,17,01,46,8.80
2021,04,17,01,47,8.80
2021,04,17,01,48,8.80
2021,04,17,01,49,8.80
2021,04,17,01,50,8.80
2021,04,17,01,51,8.70
2021,04,17,01,52,8.70
2021,04,17,01,53,8.70
2021,04,17,01,54,8.70
2021,04,17,01,55,8.70
2021,04,17,01,56,8.70
2021,04,17,01,57,8.60
2021,04,17,01,58,8.60
2021,04,17,01,59,8.60
2021,04,17,02,00,8.60
2021,04,17,02,01,8.60
2021,04,17,02,02,8.60
2021,04,17,02,03,8.60
2021,04,17,02,04,8.60
2021,04,17,02,05,8.60
2021,04,17,02,06,8.60
2021,04,17,02,07,8.50
2021,04,17,02,08,8.50
2021,04,17,02,09,8.50
2021,04,17,02,10,8.50
2021,04,17,02,11,8.50
2021,04,17,02,12,8.50
2021,04,17,02,13,8.50
2021,04,17,02,14,8.50
2021,04,17,02,15,8.50
2021,04,17,02,16,8.50
2021,04,17,02,17,8.50
2021,04,17,02,18,8.50
2021,04,17,02,19,8.50
2021,04,17,02,20,8.50
2021,04,17,02,21,8.50
2021,04,17,02,22,8.50
2021,04,17,02,23,8.50
2021,04,17,02,24,8.40
2021,04,17,02,25,8.40
2021,04,17,02,26,8.40
2021,04,17,02,27,8.40
2021,04,17,02,28,8.40
2021,04,17,02,29,8.40
2021,04,17,02,30,8.40
2021,04,17,02,31,8.40
2021,04,17,02,32,8.30
2021,04,17,02,33,8.30
2021,04,17,02,34,8.30
2021,04,17,02,35,8.30
2021,04,17,02,36,8.30
2021,04,17,02,37,8.30
2021,04,17,02,38,8.30
2021,04,17,02,39,8.30
2021,04,17,02,40,8.30
2021,04,17,02,41,8.30
2021,04,17,02,42,8.30
2021,04,17,02,43,8.30
2021,04,17,02,44,8.30
2021,04,17,02,45,8.30
2021,04,17,02,46,8.30
2021,04,17,02,47,8.30
2021,04,17,02,48,8.30
2021,04,17,02,49,8.30
2021,04,17,02,50,8.30
2021,04,17,02,51,8.30
2021,04,17,02,52,8.30
2021,04,17,02,53,8.30
2021,04,17,02,54,8.30
2021,04,17,02,55,8.30
2021,04,17,02,56,8.30
2021,04,17,02,57,8.30
2021,04,17,02,58,8.20
2021,04,17,02,59,8.20
2021,04,17,03,00,8.20
2021,04,17,03,01,8.20
2021,04,17,03,02,8.20
2021,04,17,03,03,8.10
2021,04,17,03,04,8.10
2021,04,17,03,05,8.10
2021,04,17,03,06,8.10
2021,04,17,03,07,8.10
2021,04,17,03,08,8.10
2021,04,17,03,09,8.10
2021,04,17,03,10,8.10
2021,04,17,03,11,8.10
2021,04,17,03,12,8.10
2021,04,17,03,13,8.10
2021,04,17,03,14,8.10
2021,04,17,03,15,8.00
2021,04,17,03,16,8.00
2021,04,17,03,17,8.00
2021,04,17,03,18,8.00
2021,04,17,03,19,8.00
2021,04,17,03,20,8.00
2021,04,17,03,21,8.00
2021,04,17,03,22,8.00
2021,04,17,03,23,8.00
2021,04,17,03,24,8.00
2021,04,17,03,25,8.00
2021,04,17,03,26,8.00
2021,04,17,03,27,8.00
2021,04,17,03,28,8.00
2021,04,17,03,29,8.00
2021,04,17,03,30,8.10
2021,04,17,03,31,8.10
2021,04,17,03,32,8.10
2021,04,17,03,33,8.10
2021,04,17,03,34,8.10
2021,04,17,03,35,8.10
2021,04,17,03,36,8.20
2021,04,17,03,37,8.20
2021,04,17,03,38,8.20
2021,04,17,03,39,8.20
2021,04,17,03,40,8.20
2021,04,17,03,41,8.30
2021,04,17,03,42,8.30
2021,04,17,03,43,8.20
2021,04,17,03,44,8.20
2021,04,17,03,45,8.20
2021,04,17,03,46,8.20
2021,04,17,03,47,8.20
2021,04,17,03,48,8.10
2021,04,17,03,49,8.10
2021,04,17,03,50,8.10
2021,04,17,03,51,8.10
2021,04,17,03,52,8.10
2021,04,17,03,53,8.10
2021,04,17,03,54,8.10
2021,04,17,03,55,8.10
2021,04,17,03,56,8.10
2021,04,17,03,57,8.10
2021,04,17,03,58,8.10
2021,04,17,03,59,8.10
2021,04,17,04,00,8.10
2021,04,17,04,01,8.10
2021,04,17,04,02,8.10
2021,04,17,04,03,8.10
2021,04,17,04,04,8.10
2021,04,17,04,05,8.10
2021,04,17,04,06,8.10
2021,04,17,04,07,8.10
2021,04,17,04,08,8.10
2021,04,17,04,09,8.10
2021,04,17,04,10,8.10
2021,04,17,04,11,8.10
2021,04,17,04,12,8.10
2021,04,17,04,13,8.10
2021,04,17,04,14,8.10
2021,04,17,04,15,8.10
2021,04,17,04,16,8.10
2021,04,17,04,17,8.10
2021,04,17,04,18,8.10
2021,04,17,04,19,8.00
2021,04,17,04,20,8.00
2021,04,17,04,21,8.10
2021,04,17,04,22,8.00
2021,04,17,04,23,8.00
2021,04,17,04,24,8.00
2021,04,17,04,25,8.00
2021,04,17,04,26,8.00
2021,04,17,04,27,8.00
2021,04,17,04,28,8.10
2021,04,17,04,29,8.00
2021,04,17,04,30,8.10
2021,04,17,04,31,8.10
2021,04,17,04,32,8.10
2021,04,17,04,33,8.10
2021,04,17,04,34,8.10
2021,04,17,04,35,8.10
2021,04,17,04,36,8.10
2021,04,17,04,37,8.10
2021,04,17,04,38,8.10
2021,04,17,04,39,8.10
2021,04,17,04,40,8.10
2021,04,17,04,41,8.10
2021,04,17,04,42,8.10
2021,04,17,04,43,8.00
2021,04,17,04,44,8.00
2021,04,17,04,45,8.10
2021,04,17,04,46,8.10
2021,04,17,04,47,8.00
2021,04,17,04,48,8.00
2021,04,17,04,49,8.00
2021,04,17,04,50,8.00
2021,04,17,04,51,8.10
2021,04,17,04,52,8.10
2021,04,17,04,53,8.10
2021,04,17,04,54,8.10
2021,04,17,04,55,8.10
2021,04,17,04,56,8.10
2021,04,17,04,57,8.00
2021,04,17,04,58,8.00
2021,04,17,04,59,8.00
2021,04,17,05,00,7.90
2021,04,17,05,01,7.90
2021,04,17,05,02,7.90
2021,04,17,05,03,7.90
2021,04,17,05,04,7.90
2021,04,17,05,05,7.80
2021,04,17,05,06,7.80
2021,04,17,05,07,7.80
2021,04,17,05,08,7.80
2021,04,17,05,09,7.80
2021,04,17,05,10,7.80
2021,04,17,05,11,7.80
2021,04,17,05,12,7.80
2021,04,17,05,13,7.80
2021,04,17,05,14,7.80
2021,04,17,05,15,7.80
2021,04,17,05,16,7.80
2021,04,17,05,17,7.80
2021,04,17,05,18,7.80
2021,04,17,05,19,7.80
2021,04,17,05,20,7.80
2021,04,17,05,21,7.80
2021,04,17,05,22,7.80
2021,04,17,05,23,7.80
2021,04,17,05,24,7.80
2021,04,17,05,25,7.80
2021,04,17,05,26,7.80
2021,04,17,05,27,7.80
2021,04,17,05,28,7.80
2021,04,17,05,29,7.80
2021,04,17,05,30,7.80
2021,04,17,05,31,7.80
2021,04,17,05,32,7.80
2021,04,17,05,33,7.90
2021,04,17,05,34,7.90
2021,04,17,05,35,7.90
2021,04,17,05,36,7.90
2021,04,17,05,37,7.90
2021,04,17,05,38,7.90
2021,04,17,05,39,7.80
2021,04,17,05,40,7.80
2021,04,17,05,41,7.80
2021,04,17,05,42,7.80
2021,04,17,05,43,7.80
2021,04,17,05,44,7.80
2021,04,17,05,45,7.80
2021,04,17,05,46,7.80
2021,04,17,05,47,7.80
2021,04,17,05,48,7.80
2021,04,17,05,49,7.80
2021,04,17,05,50,7.80
2021,04,17,05,51,7.80
2021,04,17,05,52,7.80
2021,04,17,05,53,7.80
2021,04,17,05,54,7.80
2021,04,17,05,55,7.80
2021,04,17,05,56,7.80
2021,04,17,05,57,7.80
2021,04,17,05,58,7.80
2021,04,17,05,59,7.80
2021,04,17,06,00,7.80
2021,04,17,06,01,7.80
2021,04,17,06,02,7.80
2021,04,17,06,03,7.70
2021,04,17,06,04,7.70
2021,04,17,06,05,7.70
2021,04,17,06,06,7.70
2021,04,17,06,07,7.70
2021,04,17,06,08,7.70
2021,04,17,06,09,7.60
2021,04,17,06,10,7.60
2021,04,17,06,11,7.60
2021,04,17,06,12,7.60
2021,04,17,06,13,7.60
2021,04,17,06,14,7.60
2021,04,17,06,15,7.60
2021,04,17,06,16,7.60
2021,04,17,06,17,7.70
2021,04,17,06,18,7.70
2021,04,17,06,19,7.70
2021,04,17,06,20,7.70
2021,04,17,06,21,7.70
2021,04,17,06,22,7.70
2021,04,17,06,23,7.70
2021,04,17,06,24,7.70
2021,04,17,06,25,7.70
2021,04,17,06,26,7.70
2021,04,17,06,27,7.70
2021,04,17,06,28,7.70
2021,04,17,06,29,7.70
2021,04,17,06,30,7.70
2021,04,17,06,31,7.70
2021,04,17,06,32,7.70
2021,04,17,06,33,7.70
2021,04,17,06,34,7.70
2021,04,17,06,35,7.70
2021,04,17,06,36,7.70
2021,04,17,06,37,7.70
2021,04,17,06,38,7.70
2021,04,17,06,39,7.70
2021,04,17,06,40,7.70
2021,04,17,06,41,7.70
2021,04,17,06,42,7.70
2021,04,17,06,43,7.70
2021,04,17,06,44,7.70
2021,04,17,06,45,7.70
2021,04,17,06,46,7.70
2021,04,17,06,47,7.70
2021,04,17,06,48,7.70
2021,04,17,06,49,7.70
2021,04,17,06,50,7.70
2021,04,17,06,51,7.70
2021,04,17,06,52,7.70
2021,04,17,06,53,7.70
2021,04,17,06,54,7.70
2021,04,17,06,55,7.70
2021,04,17,06,56,7.70
2021,04,17,06,57,7.70
2021,04,17,06,58,7.70
2021,04,17,06,59,7.70
2021,04,17,07,00,7.70
2021,04,17,07,01,7.70
2021,04,17,07,02,7.70
2021,04,17,07,03,7.70
2021,04,17,07,04,7.70
2021,04,17,07,05,7.70
2021,04,17,07,06,7.70
2021,04,17,07,07,7.70
2021,04,17,07,08,7.70
2021,04,17,07,09,7.70
2021,04,17,07,10,7.70
2021,04,17,07,11,7.70
2021,04,17,07,12,7.80
2021,04,17,07,13,7.80
2021,04,17,07,14,7.80
2021,04,17,07,15,7.80
2021,04,17,07,16,7.90
2021,04,17,07,17,7.90
2021,04,17,07,18,7.90
2021,04,17,07,19,7.90
2021,04,17,07,20,7.90
2021,04,17,07,21,8.00
2021,04,17,07,22,8.00
2021,04,17,07,23,8.00
2021,04,17,07,24,8.00
2021,04,17,07,25,8.00
2021,04,17,07,26,8.10
2021,04,17,07,27,8.10
2021,04,17,07,28,8.10
2021,04,17,07,29,8.20
2021,04,17,07,30,8.20
2021,04,17,07,31,8.20
2021,04,17,07,32,8.20
2021,04,17,07,33,8.30
2021,04,17,07,34,8.30
2021,04,17,07,35,8.30
2021,04,17,07,36,8.30
2021,04,17,07,37,8.40
2021,04,17,07,38,8.40
2021,04,17,07,39,8.50
2021,04,17,07,40,8.50
2021,04,17,07,41,8.60
2021,04,17,07,42,8.60
2021,04,17,07,43,8.60
2021,04,17,07,44,8.60
2021,04,17,07,45,8.70
2021,04,17,07,46,8.70
2021,04,17,07,47,8.70
2021,04,17,07,48,8.70
2021,04,17,07,49,8.80
2021,04,17,07,50,8.80
2021,04,17,07,51,8.80
2021,04,17,07,52,8.90
2021,04,17,07,53,8.90
2021,04,17,07,54,9.00
2021,04,17,07,55,9.10
2021,04,17,07,56,9.10
2021,04,17,07,57,9.20
2021,04,17,07,58,9.30
2021,04,17,07,59,9.40
2021,04,17,08,00,9.50
2021,04,17,08,01,9.50
2021,04,17,08,02,9.60
2021,04,17,08,03,9.70
2021,04,17,08,04,9.80
2021,04,17,08,05,9.90
2021,04,17,08,06,10.00
2021,04,17,08,07,10.10
2021,04,17,08,08,10.20
2021,04,17,08,09,10.30
2021,04,17,08,10,10.40
2021,04,17,08,11,10.50
2021,04,17,08,12,10.60
2021,04,17,08,13,10.70
2021,04,17,08,14,10.80
2021,04,17,08,15,10.90
2021,04,17,08,16,11.00
2021,04,17,08,17,11.10
2021,04,17,08,18,11.20
2021,04,17,08,19,11.40
2021,04,17,08,20,11.50
2021,04,17,08,21,11.60
2021,04,17,08,22,11.70
2021,04,17,08,23,11.80
2021,04,17,08,24,11.90
2021,04,17,08,25,12.00
2021,04,17,08,26,12.10
2021,04,17,08,27,12.20
2021,04,17,08,28,12.20
2021,04,17,08,29,12.30
2021,04,17,08,30,12.40
2021,04,17,08,31,12.40
2021,04,17,08,32,12.50
2021,04,17,08,33,12.60
2021,04,17,08,34,12.70
2021,04,17,08,35,12.70
2021,04,17,08,36,12.80
2021,04,17,08,37,12.80
2021,04,17,08,38,12.80
2021,04,17,08,39,12.80
2021,04,17,08,40,12.90
2021,04,17,08,41,12.80
2021,04,17,08,42,12.80
2021,04,17,08,43,12.90
2021,04,17,08,44,12.90
2021,04,17,08,45,13.00
2021,04,17,08,46,13.00
2021,04,17,08,47,13.00
2021,04,17,08,48,13.00
2021,04,17,08,49,13.00
2021,04,17,08,50,13.00
2021,04,17,08,51,13.00
2021,04,17,08,52,13.00
2021,04,17,08,53,13.00
2021,04,17,08,54,13.10
2021,04,17,08,55,13.10
2021,04,17,08,56,13.20
2021,04,17,08,57,13.20
2021,04,17,08,58,13.30
2021,04,17,08,59,13.40
2021,04,17,09,00,13.50
2021,04,17,09,01,13.60
2021,04,17,09,02,13.60
2021,04,17,09,03,13.60
2021,04,17,09,04,13.60
2021,04,17,09,05,13.60
2021,04,17,09,06,13.60
2021,04,17,09,07,13.60
2021,04,17,09,08,13.60
2021,04,17,09,09,13.60
2021,04,17,09,10,13.60
2021,04,17,09,11,13.60
2021,04,17,09,12,13.60
2021,04,17,09,13,13.60
2021,04,17,09,14,13.70
2021,04,17,09,15,13.70
2021,04,17,09,16,13.70
2021,04,17,09,17,13.80
2021,04,17,09,18,13.80
2021,04,17,09,19,13.90
2021,04,17,09,20,14.00
2021,04,17,09,21,14.00
2021,04,17,09,22,14.10
2021,04,17,09,23,14.10
2021,04,17,09,24,14.20
2021,04,17,09,25,14.20
2021,04,17,09,26,14.20
2021,04,17,09,27,14.20
2021,04,17,09,28,14.10
2021,04,17,09,29,14.10
2021,04,17,09,30,14.00
2021,04,17,09,31,14.00
2021,04,17,09,32,13.90
2021,04,17,09,33,13.90
2021,04,17,09,34,13.90
2021,04,17,09,35,13.90
2021,04,17,09,36,13.90
2021,04,17,09,37,13.90
2021,04,17,09,38,13.90
2021,04,17,09,39,13.90
2021,04,17,09,40,13.90
2021,04,17,09,41,14.00
2021,04,17,09,42,14.10
2021,04,17,09,43,14.10
2021,04,17,09,44,14.20
2021,04,17,09,45,14.20
2021,04,17,09,46,14.30
2021,04,17,09,47,14.40
2021,04,17,09,48,14.50
2021,04,17,09,49,14.50
2021,04,17,09,50,14.60
2021,04,17,09,51,14.60
2021,04,17,09,52,14.70
2021,04,17,09,53,14.70
2021,04,17,09,54,14.80
2021,04,17,09,55,14.80
2021,04,17,09,56,14.90
2021,04,17,09,57,14.90
2021,04,17,09,58,14.80
2021,04,17,09,59,14.80
2021,04,17,10,00,14.80
2021,04,17,10,01,14.80
2021,04,17,10,02,14.80
2021,04,17,10,03,14.80
2021,04,17,10,04,14.90
2021,04,17,10,05,14.90
2021,04,17,10,06,15.00
2021,04,17,10,07,15.10
2021,04,17,10,08,15.10
2021,04,17,10,09,15.20
2021,04,17,10,10,15.20
2021,04,17,10,11,15.30
2021,04,17,10,12,15.40
2021,04,17,10,13,15.40
2021,04,17,10,14,15.50
2021,04,17,10,15,15.60
2021,04,17,10,16,15.60
2021,04,17,10,17,15.60
2021,04,17,10,18,15.60
2021,04,17,10,19,15.70
2021,04,17,10,20,15.80
2021,04,17,10,21,15.80
2021,04,17,10,22,15.90
2021,04,17,10,23,16.00
2021,04,17,10,24,16.00
2021,04,17,10,25,16.10
2021,04,17,10,26,16.20
2021,04,17,10,27,16.30
2021,04,17,10,28,16.40
2021,04,17,10,29,16.40
2021,04,17,10,30,16.40
2021,04,17,10,31,16.50
2021,04,17,10,32,16.60
2021,04,17,10,33,16.70
2021,04,17,10,34,16.70
2021,04,17,10,35,16.80
2021,04,17,10,36,16.80
2021,04,17,10,37,16.90
2021,04,17,10,38,16.90
2021,04,17,10,39,16.90
2021,04,17,10,40,16.90
2021,04,17,10,41,16.90
2021,04,17,10,42,17.00
2021,04,17,10,43,17.10
2021,04,17,10,44,17.20
2021,04,17,10,45,17.30
2021,04,17,10,46,17.40
2021,04,17,10,47,17.50
2021,04,17,10,48,17.50
2021,04,17,10,49,17.60
2021,04,17,10,50,17.70
2021,04,17,10,51,17.70
2021,04,17,10,52,17.80
2021,04,17,10,53,17.80
2021,04,17,10,54,17.90
2021,04,17,10,55,17.90
2021,04,17,10,56,18.00
2021,04,17,10,57,18.10
2021,04,17,10,58,18.10
2021,04,17,10,59,18.20
2021,04,17,11,00,18.20
2021,04,17,11,01,18.20
2021,04,17,11,02,18.20
2021,04,17,11,03,18.20
2021,04,17,11,04,18.20
2021,04,17,11,05,18.20
2021,04,17,11,06,18.30
2021,04,17,11,07,18.40
2021,04,17,11,08,18.50
2021,04,17,11,09,18.50
2021,04,17,11,10,18.50
2021,04,17,11,11,18.40
2021,04,17,11,12,18.40
2021,04,17,11,13,18.40
2021,04,17,11,14,18.30
2021,04,17,11,15,18.30
2021,04,17,11,16,18.30
2021,04,17,11,17,18.30
2021,04,17,11,18,18.30
2021,04,17,11,19,18.40
2021,04,17,11,20,18.40
2021,04,17,11,21,18.40
2021,04,17,11,22,18.50
2021,04,17,11,23,18.50
2021,04,17,11,24,18.60
2021,04,17,11,25,18.60
2021,04,17,11,26,18.60
2021,04,17,11,27,18.70
2021,04,17,11,28,18.70
2021,04,17,11,29,18.80
2021,04,17,11,30,18.80
2021,04,17,11,31,18.80
2021,04,17,11,32,18.90
2021,04,17,11,33,18.90
2021,04,17,11,34,19.00
2021,04,17,11,35,19.00
2021,04,17,11,36,19.10
2021,04,17,11,37,19.10
2021,04,17,11,38,19.10
2021,04,17,11,39,19.00
2021,04,17,11,40,19.00
2021,04,17,11,41,18.90
2021,04,17,11,42,18.90
2021,04,17,11,43,18.90
2021,04,17,11,44,18.90
2021,04,17,11,45,18.90
2021,04,17,11,46,19.00
2021,04,17,11,47,19.00
2021,04,17,11,48,19.10
2021,04,17,11,49,19.10
2021,04,17,11,50,19.10
2021,04,17,11,51,19.20
2021,04,17,11,52,19.20
2021,04,17,11,53,19.20
2021,04,17,11,54,19.30
2021,04,17,11,55,19.40
2021,04,17,11,56,19.50
2021,04,17,11,57,19.60
2021,04,17,11,58,19.60
2021,04,17,11,59,19.60
2021,04,17,12,00,19.70
2021,04,17,12,01,19.70
2021,04,17,12,02,19.70
2021,04,17,12,03,19.60
2021,04,17,12,04,19.60
2021,04,17,12,05,19.60
2021,04,17,12,06,19.50
2021,04,17,12,07,19.50
2021,04,17,12,08,19.40
2021,04,17,12,09,19.50
2021,04,17,12,10,19.50
2021,04,17,12,11,19.70
2021,04,17,12,12,19.70
2021,04,17,12,13,19.70
2021,04,17,12,14,19.70
2021,04,17,12,15,19.70
2021,04,17,12,16,19.80
2021,04,17,12,17,19.80
2021,04,17,12,18,19.90
2021,04,17,12,19,20.00
2021,04,17,12,20,20.00
2021,04,17,12,21,20.00
2021,04,17,12,22,20.00
2021,04,17,12,23,20.00
2021,04,17,12,24,19.90
2021,04,17,12,25,19.90
2021,04,17,12,26,19.90
2021,04,17,12,27,20.00
2021,04,17,12,28,20.00
2021,04,17,12,29,20.10
2021,04,17,12,30,20.20
2021,04,17,12,31,20.30
2021,04,17,12,32,20.30
2021,04,17,12,33,20.30
2021,04,17,12,34,20.30
2021,04,17,12,35,20.30
2021,04,17,12,36,20.30
2021,04,17,12,37,20.20
2021,04,17,12,38,20.10
2021,04,17,12,39,20.00
2021,04,17,12,40,20.00
2021,04,17,12,41,19.90
2021,04,17,12,42,19.90
2021,04,17,12,43,19.90
2021,04,17,12,44,19.80
2021,04,17,12,45,19.80
2021,04,17,12,46,19.80
2021,04,17,12,47,19.80
2021,04,17,12,48,19.80
2021,04,17,12,49,19.80
2021,04,17,12,50,19.80
2021,04,17,12,51,19.80
2021,04,17,12,52,19.80
2021,04,17,12,53,19.90
2021,04,17,12,54,19.90
2021,04,17,12,55,19.90
2021,04,17,12,56,20.00
2021,04,17,12,57,20.00
2021,04,17,12,58,20.00
2021,04,17,12,59,20.00
2021,04,17,13,00,20.00
2021,04,17,13,01,20.10
2021,04,17,13,02,20.10
2021,04,17,13,03,20.10
2021,04,17,13,04,20.20
2021,04,17,13,05,20.30
2021,04,17,13,06,20.20
2021,04,17,13,07,20.20
2021,04,17,13,08,20.30
2021,04,17,13,09,20.40
2021,04,17,13,10,20.50
2021,04,17,13,11,20.60
2021,04,17,13,12,20.70
2021,04,17,13,13,20.70
2021,04,17,13,14,20.80
2021,04,17,13,15,20.90
2021,04,17,13,16,20.80
2021,04,17,13,17,20.80
2021,04,17,13,18,20.70
2021,04,17,13,19,20.70
2021,04,17,13,20,20.70
2021,04,17,13,21,20.80
2021,04,17,13,22,20.80
2021,04,17,13,23,20.80
2021,04,17,13,24,20.90
2021,04,17,13,25,21.00
2021,04,17,13,26,21.10
2021,04,17,13,27,21.20
2021,04,17,13,28,21.20
2021,04,17,13,29,21.20
2021,04,17,13,30,21.20
2021,04,17,13,31,21.30
2021,04,17,13,32,21.30
2021,04,17,13,33,21.40
2021,04,17,13,34,21.40
2021,04,17,13,35,21.50
2021,04,17,13,36,21.60
2021,04,17,13,37,21.60
2021,04,17,13,38,21.60
2021,04,17,13,39,21.70
2021,04,17,13,40,21.60
2021,04,17,13,41,21.50
2021,04,17,13,42,21.60
2021,04,17,13,43,21.50
2021,04,17,13,44,21.50
2021,04,17,13,45,21.50
2021,04,17,13,46,21.50
2021,04,17,13,47,21.40
2021,04,17,13,48,21.30
2021,04,17,13,49,21.30
2021,04,17,13,50,21.30
2021,04,17,13,51,21.40
2021,04,17,13,52,21.50
2021,04,17,13,53,21.40
2021,04,17,13,54,21.40
2021,04,17,13,55,21.50
2021,04,17,13,56,21.50
2021,04,17,13,57,21.50
2021,04,17,13,58,21.50
2021,04,17,13,59,21.40
2021,04,17,14,00,21.40
2021,04,17,14,01,21.30
2021,04,17,14,02,21.30
2021,04,17,14,03,21.20
2021,04,17,14,04,21.20
2021,04,17,14,05,21.10
2021,04,17,14,06,21.10
2021,04,17,14,07,21.10
2021,04,17,14,08,21.10
2021,04,17,14,09,21.30
2021,04,17,14,10,21.30
2021,04,17,14,11,21.30
2021,04,17,14,12,21.30
2021,04,17,14,13,21.30
2021,04,17,14,14,21.30
2021,04,17,14,15,21.20
2021,04,17,14,16,21.20
2021,04,17,14,17,21.10
2021,04,17,14,18,21.10
2021,04,17,14,19,21.10
2021,04,17,14,20,21.10
2021,04,17,14,21,21.10
2021,04,17,14,22,21.10
2021,04,17,14,23,21.10
2021,04,17,14,24,21.20
2021,04,17,14,25,21.30
2021,04,17,14,26,21.40
2021,04,17,14,27,21.40
2021,04,17,14,28,21.50
2021,04,17,14,29,21.50
2021,04,17,14,30,21.60
2021,04,17,14,31,21.60
2021,04,17,14,32,21.50
2021,04,17,14,33,21.50
2021,04,17,14,34,21.50
2021,04,17,14,35,21.60
2021,04,17,14,36,21.60
2021,04,17,14,37,21.70
2021,04,17,14,38,21.80
2021,04,17,14,39,21.80
2021,04,17,14,40,21.80
2021,04,17,14,41,21.90
2021,04,17,14,42,21.90
2021,04,17,14,43,22.00
2021,04,17,14,44,22.00
2021,04,17,14,45,22.10
2021,04,17,14,46,22.10
2021,04,17,14,47,22.10
2021,04,17,14,48,22.10
2021,04,17,14,49,22.10
2021,04,17,14,50,22.10
2021,04,17,14,51,22.10
2021,04,17,14,52,22.10
2021,04,17,14,53,22.10
2021,04,17,14,54,22.10
2021,04,17,14,55,22.10
2021,04,17,14,56,22.10
2021,04,17,14,57,22.20
2021,04,17,14,58,22.20
2021,04,17,14,59,22.20
2021,04,17,15,00,22.20
2021,04,17,15,01,22.20
2021,04,17,15,02,22.20
2021,04,17,15,03,22.20
2021,04,17,15,04,22.20
2021,04,17,15,05,22.20
2021,04,17,15,06,22.20
2021,04,17,15,07,22.30
2021,04,17,15,08,22.30
2021,04,17,15,09,22.30
2021,04,17,15,10,22.30
2021,04,17,15,11,22.30
2021,04,17,15,12,22.30
2021,04,17,15,13,22.40
2021,04,17,15,14,22.40
2021,04,17,15,15,22.40
2021,04,17,15,16,22.50
2021,04,17,15,17,22.60
2021,04,17,15,18,22.70
2021,04,17,15,19,22.70
2021,04,17,15,20,22.70
2021,04,17,15,21,22.70
2021,04,17,15,22,22.70
2021,04,17,15,23,22.70
2021,04,17,15,24,22.70
2021,04,17,15,25,22.70
2021,04,17,15,26,22.60
2021,04,17,15,27,22.60
2021,04,17,15,28,22.60
2021,04,17,15,29,22.60
2021,04,17,15,30,22.60
2021,04,17,15,31,22.60
2021,04,17,15,32,22.60
2021,04,17,15,33,22.60
2021,04,17,15,34,22.70
2021,04,17,15,35,22.70
2021,04,17,15,36,22.80
2021,04,17,15,37,22.80
2021,04,17,15,38,22.80
2021,04,17,15,39,22.80
2021,04,17,15,40,22.80
2021,04,17,15,41,22.80
2021,04,17,15,42,22.90
2021,04,17,15,43,22.90
2021,04,17,15,44,23.00
2021,04,17,15,45,23.00
2021,04,17,15,46,23.00
2021,04,17,15,47,23.00
2021,04,17,15,48,22.90
2021,04,17,15,49,22.80
2021,04,17,15,50,22.80
2021,04,17,15,51,22.90
2021,04,17,15,52,22.90
2021,04,17,15,53,23.00
2021,04,17,15,54,23.10
2021,04,17,15,55,23.10
2021,04,17,15,56,23.20
2021,04,17,15,57,23.20
2021,04,17,15,58,23.30
2021,04,17,15,59,23.30
2021,04,17,16,00,23.30
2021,04,17,16,01,23.30
2021,04,17,16,02,23.20
2021,04,17,16,03,23.20
2021,04,17,16,04,23.20
2021,04,17,16,05,23.20
2021,04,17,16,06,23.20
2021,04,17,16,07,23.30
2021,04,17,16,08,23.30
2021,04,17,16,09,23.20
2021,04,17,16,10,23.20
2021,04,17,16,11,23.20
2021,04,17,16,12,23.30
2021,04,17,16,13,23.20
2021,04,17,16,14,23.20
2021,04,17,16,15,23.10
2021,04,17,16,16,23.10
2021,04,17,16,17,23.10
2021,04,17,16,18,23.20
2021,04,17,16,19,23.20
2021,04,17,16,20,23.30
2021,04,17,16,21,23.40
2021,04,17,16,22,23.40
2021,04,17,16,23,23.40
2021,04,17,16,24,23.40
2021,04,17,16,25,23.40
2021,04,17,16,26,23.40
2021,04,17,16,27,23.30
2021,04,17,16,28,23.30
2021,04,17,16,29,23.30
2021,04,17,16,30,23.30
2021,04,17,16,31,23.30
2021,04,17,16,32,23.30
2021,04,17,16,33,23.30
2021,04,17,16,34,23.40
2021,04,17,16,35,23.50
2021,04,17,16,36,23.50
2021,04,17,16,37,23.50
2021,04,17,16,38,23.60
2021,04,17,16,39,23.60
2021,04,17,16,40,23.60
2021,04,17,16,41,23.60
2021,04,17,16,42,23.60
2021,04,17,16,43,23.60
2021,04,17,16,44,23.50
2021,04,17,16,45,23.50
2021,04,17,16,46,23.50
2021,04,17,16,47,23.50
2021,04,17,16,48,23.50
2021,04,17,16,49,23.60
2021,04,17,16,50,23.60
2021,04,17,16,51,23.50
2021,04,17,16,52,23.50
2021,04,17,16,53,23.40
2021,04,17,16,54,23.40
2021,04,17,16,55,23.40
2021,04,17,16,56,23.40
2021,04,17,16,57,23.50
2021,04,17,16,58,23.50
2021,04,17,16,59,23.60
2021,04,17,17,00,23.70
2021,04,17,17,01,23.70
2021,04,17,17,02,23.70
2021,04,17,17,03,23.70
2021,04,17,17,04,23.70
2021,04,17,17,05,23.70
2021,04,17,17,06,23.70
2021,04,17,17,07,23.70
2021,04,17,17,08,23.60
2021,04,17,17,09,23.60
2021,04,17,17,10,23.60
2021,04,17,17,11,23.60
2021,04,17,17,12,23.60
2021,04,17,17,13,23.70
2021,04,17,17,14,23.70
2021,04,17,17,15,23.60
2021,04,17,17,16,23.60
2021,04,17,17,17,23.60
2021,04,17,17,18,23.60
2021,04,17,17,19,23.60
2021,04,17,17,20,23.50
2021,04,17,17,21,23.50
2021,04,17,17,22,23.50
2021,04,17,17,23,23.60
2021,04,17,17,24,23.60
2021,04,17,17,25,23.60
2021,04,17,17,26,23.60
2021,04,17,17,27,23.60
2021,04,17,17,28,23.70
2021,04,17,17,29,23.70
2021,04,17,17,30,23.70
2021,04,17,17,31,23.60
2021,04,17,17,32,23.60
2021,04,17,17,33,23.60
2021,04,17,17,34,23.60
2021,04,17,17,35,23.60
2021,04,17,17,36,23.60
2021,04,17,17,37,23.70
2021,04,17,17,38,23.70
2021,04,17,17,39,23.70
2021,04,17,17,40,23.70